THOR 7

Last updated on Tue Jul 01 2025 00:02:46 GMT+0000 (Coordinated Universal Time)

1 40613U 15022A 25181.28215911 -.00000010 00000+0 00000+0 0 9990 2 40613 0.0230 106.8315 0002589 352.7860 279.8796 1.00272140 37285
UTC large
Height (km)
Speed (km/s)
/
Latitude / Longitude
Inclination (degrees)
Orbital Period (minutes)
Azimuth
Elevation
Range (km)
Doppler Factor

Next 0 passes for location: London (51.5072 / 0.1276)

Sorry there are no passes over London.